Location: Heisede
(52.2582°N, 9.8523°E)
Time: 00:27:50
(UTC+00:00)

Timation 2 Rocket - Pass Details

Date: 13 January 2026
Orbit: 907 x 1072 km, 70.0° (Epoch: 18 February)

Event Time Altitude Azimuth Distance (km) Brightness Sun altitude
Rises 05:49:04 0° 205° (SSW) 3,788 7.0 -13.9°
Reaches altitude 10° 05:51:42 10° 205° (SSW) 2,818 6.3 -13.5°
Maximum altitude 05:58:17 80° 120° (ESE) 1,020 4.2 -12.6°
Drops below altitude 10° 06:04:38 10° 35° (NE) 2,717 6.5 -11.6°
Sets 06:07:08 0° 34° (NE) 3,644 7.2 -11.3°
